sat.trackr.live / text

‹ back to catalog

ECHOSTAR 15

NORAD 36792 · 2010-034A

PAYLOAD ACTIVE UNKNOWN

§ Identity

Operator
Country
US
Launch date
2010-07-10
Launch site
TYMSC
Launch vehicle
Mass (kg)
RCS (m²)
6.31

Purposes: comms

External: N2YO · Heavens-Above · Gunter

§ Orbital elements

Epoch: 2026-09-09T15:11:59.583264Z

Period
1,435.87 min
Inclination
0.0479°
Eccentricity
0.0002297
Mean motion
1.00287522 rev/d
Perigee alt
35,772.5 km
Apogee alt
35,791.9 km
Semi-major
42,160.3 km
B*
0.0000e+0
RAAN
284.6591°
Arg perigee
233.1705°
Mean anomaly
300.0651°
Rev number
5,916

§ Raw data

ECHOSTAR 151 36792U 10034A   26252.63332851 -.00000024  00000+0  00000+0 0  99982 36792   0.0479 284.6591 0002297 233.1705 300.0651  1.00287522 59168

JSON: /api/v1/satellites/36792 · /tle

For live sub-satellite position, see the globe view (requires WebGL).

§ Visibility from observer

Set your observer location to see the next 7 days of passes ≥ 10°. The values pass through the URL so the page stays shareable.

No JS? Fill the form by hand. The geolocation button needs JavaScript.